Temperature
25 25 24 24 22 20 21 22 23 23 22 22 22 21 20 19 19 19 19 19 19 19 19 19 19 19 19 19 19 19 19 18 18 18 18 18 18 18 18 18 18 18 18 18 18 18 18 18 18
25 25 25 24 20 20 21 22 22 22 22 23 22 21 19 18 18 19 19 19 19 19 19 19 19 19 19 19 19 19 19 18 18 18 18 18 18 18 18 18 18 18 18 18 18 18 18 18 18
26 25 25 21 21 21 22 23 23 23 23 23 22 21 20 19 19 20 20 19 19 19 19 19 19 19 19 19 19 19 19 18 18 18 18 18 18 18 18 18 18 18 17 18 18 17 17 17 17
26 26 24 21 22 23 23 23 23 23 23 22 21 20 20 20 20 20 20 19 19 19 19 19 19 19 19 19 19 18 18 18 18 18 18 18 18 18 18 18 18 18 18 17 17 17 17 17 17
26 25 21 21 23 24 24 24 24 23 23 22 21 20 19 20 20 20 20 20 20 19 19 19 19 19 19 19 19 19 18 18 18 18 18 18 18 18 18 18 18 18 18 18 17 17 17 17 17
26 22 21 22 23 24 24 24 23 23 22 22 21 19 19 20 20 20 20 20 20 19 19 19 19 19 19 19 19 19 18 18 18 18 18 18 18 18 18 18 18 18 18 18 17 17 17 17 17
25 21 22 23 23 24 24 24 23 22 22 22 21 19 19 19 20 20 20 20 19 19 19 19 19 19 19 19 19 18 18 18 18 18 18 18 18 18 18 18 18 18 18 17 17 17 17 17 17
26 21 23 23 24 24 25 24 24 23 23 22 22 20 19 19 20 20 20 19 19 19 19 19 19 19 19 19 19 18 18 18 18 18 18 18 18 18 18 18 18 18 18 17 17 17 17 17 17
26 21 22 23 24 24 25 24 24 24 23 22 22 22 21 20 20 20 19 19 19 19 19 19 19 19 19 19 19 18 18 18 18 18 18 18 18 18 18 18 18 18 18 17 17 17 17 17 17
25 22 24 24 24 24 25 24 24 24 23 22 22 22 21 20 20 20 20 20 20 20 19 19 19 19 19 19 19 19 18 18 18 18 18 18 18 18 18 18 18 18 18 17 17 17 17 17 17
25 24 25 25 26 26 25 25 25 23 22 22 22 22 21 21 20 20 20 21 20 20 20 19 19 19 19 19 19 19 19 18 18 18 18 18 18 18 18 18 18 18 18 18 18 17 17 17 17
25 25 26 26 26 26 25 25 24 24 24 25 24 23 22 21 21 21 21 21 20 20 20 20 19 19 19 19 19 19 19 18 18 18 18 18 18 18 18 18 18 18 18 18 18 17 17 17 17
25 25 26 26 26 26 25 25 24 24 25 24 23 23 22 22 21 21 21 21 21 20 20 20 19 19 19 19 19 19 19 18 18 18 18 18 18 18 18 18 18 18 18 18 17 17 17 17 17
25 25 25 26 26 26 25 24 24 24 24 23 23 22 22 22 22 21 21 21 21 21 20 20 20 19 19 19 19 19 19 18 18 18 18 18 18 18 18 18 18 18 18 17 17 17 17 17 17
25 25 24 25 25 25 25 24 24 24 23 22 22 22 22 22 22 22 22 22 21 21 21 20 20 20 19 19 19 19 18 18 18 18 18 18 18 18 18 18 18 18 18 17 17 17 17 17 17
24 23 24 24 25 25 25 24 23 24 23 22 21 21 21 22 22 22 22 22 21 21 21 20 20 20 19 19 19 19 18 18 18 18 18 18 18 18 18 18 18 18 17 17 17 17 17 17 17
22 23 23 24 24 24 24 24 23 23 23 22 22 21 21 21 22 22 22 22 22 21 21 20 20 20 19 19 19 19 18 18 18 18 18 18 18 18 18 18 18 17 17 17 18 17 17 18 17
23 23 23 24 24 24 24 23 23 23 23 22 22 22 22 22 22 22 22 22 22 21 21 20 20 20 19 19 19 19 19 19 18 18 18 18 18 18 18 18 18 17 17 18 17 17 17 17 17
23 23 23 23 24 24 24 23 22 22 22 22 22 22 22 22 23 22 22 22 22 21 21 20 20 20 19 19 19 19 19 19 18 18 18 18 18 18 18 18 18 18 17 17 18 17 17 17 17
24 24 23 24 24 24 23 23 22 22 22 22 22 22 22 22 22 22 22 22 22 21 21 21 20 20 20 19 19 19 19 19 18 18 18 18 18 18 18 18 18 18 18 18 18 18 17 17 17
24 24 24 24 23 23 23 23 22 22 22 22 22 23 23 23 22 23 22 22 22 21 21 21 21 20 20 20 19 19 19 18 18 18 18 18 18 18 18 18 18 18 18 18 18 18 17 17 17
23 24 24 24 23 21 23 22 22 21 21 21 22 22 23 23 23 23 23 22 22 22 21 21 20 20 20 20 19 19 19 19 19 18 18 18 18 18 18 18 18 18 18 18 18 18 17 17 17
24 24 23 23 22 21 21 21 21 20 21 21 22 22 23 23 23 23 23 23 22 22 21 21 20 20 20 20 19 19 19 19 18 18 18 18 18 18 18 18 18 18 18 18 18 17 17 17 17
24 22 21 19 19 21 22 22 21 20 21 21 22 22 23 23 23 23 23 22 22 21 21 21 20 20 20 20 19 19 19 19 18 18 18 18 18 18 18 18 18 18 18 18 17 17 17 17 17
23 21 20 21 20 20 20 21 20 21 21 21 22 22 23 23 23 23 23 22 22 22 21 21 20 20 20 19 19 19 19 18 18 18 18 18 18 18 18 18 18 18 17 17 17 17 17 17 17
22 21 20 21 21 20 20 21 21 21 22 22 22 23 23 23 23 23 23 23 22 22 21 21 20 20 20 19 19 19 18 18 18 18 18 18 18 18 18 17 17 17 17 17 17 17 17 17 17
21 21 20 18 20 20 20 20 21 22 21 21 22 22 22 23 23 23 22 22 22 21 21 21 20 20 19 19 19 18 18 18 18 18 18 18 18 18 17 17 17 17 17 17 17 17 17 16 16
21 18 17 18 19 21 22 21 21 23 22 21 20 21 22 22 22 22 22 22 22 21 21 20 20 20 19 19 19 18 18 18 18 18 18 18 17 17 17 17 17 17 17 17 17 17 16 16 16
21 20 17 16 18 19 21 21 21 21 21 20 20 21 21 22 22 22 22 22 21 21 21 20 20 19 19 19 19 18 18 18 17 17 17 17 17 17 17 17 16 16 16 16 16 16 16 16 16
22 20 18 20 19 17 19 20 22 20 20 20 21 21 22 22 22 22 22 21 21 21 20 20 20 19 19 19 18 18 18 18 17 17 17 17 17 16 16 16 16 16 16 16 16 16 16 16 16
Wind_Speed
2 3 3 2 6 7 5 4 2 4 4 4 7 8 7 5 2 4 3 7 8 6 8 10 11 12 13 13 13 14 15 15 15 15 15 15 15 15 15 15 16 16 16 17 17 17 16 17 17
1 2 2 4 6 5 4 3 4 4 5 5 7 7 7 5 4 7 5 6 8 8 8 9 11 11 12 12 13 13 14 14 14 14 14 14 14 14 15 15 15 15 16 16 16 16 16 16 16
1 1 4 5 5 4 3 1 6 6 5 4 5 6 5 4 6 5 5 9 8 7 8 9 11 11 11 11 11 12 12 13 13 13 13 13 13 14 14 14 14 15 15 16 16 15 15 15 14
2 4 5 7 5 0 4 4 6 6 5 6 5 6 5 4 5 6 10 10 9 6 7 9 11 11 11 11 11 11 11 12 12 12 12 12 12 12 13 13 14 14 14 15 15 14 14 13 13
4 5 7 5 3 2 2 4 3 4 4 4 5 6 4 4 10 12 11 10 8 6 6 9 11 10 10 10 10 10 11 11 11 11 11 11 11 12 12 12 12 13 13 13 13 13 12 12 11
5 5 6 3 2 2 2 3 3 6 6 5 5 5 3 5 10 11 9 8 6 6 6 8 10 10 10 10 10 10 10 10 10 10 10 10 11 11 11 11 11 11 12 12 11 11 10 10 10
5 5 4 3 1 1 3 3 4 5 6 4 5 6 3 5 7 9 8 7 6 5 5 5 7 8 9 9 9 9 9 9 9 9 10 10 10 10 10 9 10 10 10 10 10 9 9 9 9
5 5 4 2 2 2 3 3 4 6 5 5 5 7 6 7 10 9 8 7 5 4 3 4 5 6 6 7 9 9 9 8 8 8 9 9 8 8 8 8 8 8 8 8 8 8 8 8 8
4 5 2 3 4 3 4 4 3 4 6 3 4 5 7 15 14 11 8 6 5 5 3 3 4 5 6 6 7 7 8 7 7 7 7 7 6 6 6 6 7 7 6 6 6 6 6 7 6
5 4 4 4 5 5 5 5 6 5 5 3 6 9 15 16 14 13 12 11 9 7 5 3 4 4 5 5 5 5 5 5 5 5 6 6 5 4 3 3 4 5 5 5 5 4 5 6 5
3 3 3 2 3 5 6 5 4 8 5 7 12 17 18 16 13 12 11 10 9 8 7 6 4 4 4 3 5 4 4 4 4 4 5 5 4 3 2 2 2 3 3 3 3 4 4 3 3
2 1 1 1 3 5 6 5 4 5 6 8 15 20 19 17 15 13 12 10 8 8 8 6 5 4 4 3 4 4 3 3 2 3 4 4 2 1 1 1 1 1 1 2 2 2 3 2 2
2 2 3 2 5 5 6 4 4 1 5 13 16 17 17 16 12 9 8 8 8 8 8 7 6 6 5 4 3 4 4 4 4 4 4 4 3 2 1 1 1 1 1 0 1 1 2 2 1
1 2 3 3 5 3 6 3 4 2 10 14 16 15 15 14 12 9 9 9 9 10 8 7 8 7 6 4 4 3 5 5 4 4 5 5 5 3 2 1 1 2 2 2 1 1 1 1 1
2 5 7 5 4 3 6 2 1 6 11 13 13 13 12 11 10 12 12 11 11 10 9 8 8 7 6 6 5 5 5 6 5 5 6 6 6 5 3 2 2 3 3 3 2 1 0 1 1
5 6 4 4 2 2 6 4 3 9 12 11 11 11 11 10 10 10 10 9 9 9 9 9 9 8 7 6 5 4 5 6 6 6 6 7 8 7 4 3 3 4 3 2 2 1 1 1 1
7 3 1 4 1 2 3 4 4 9 11 11 11 10 9 8 8 8 9 9 9 10 9 9 8 8 7 6 5 4 4 5 5 6 6 7 8 8 7 5 4 4 3 2 2 1 1 2 2
2 1 1 3 3 2 3 4 3 8 10 10 9 8 8 9 10 9 9 8 8 8 8 8 7 7 6 4 3 2 2 2 4 5 6 7 7 8 7 5 4 4 2 2 2 2 2 2 2
5 3 2 5 3 2 3 3 4 7 8 8 8 8 9 9 7 6 7 8 8 7 7 8 8 7 6 3 3 3 2 2 2 4 5 6 7 7 7 4 3 3 3 3 3 2 2 2 1
4 2 2 3 3 2 1 2 2 6 9 9 10 10 10 7 6 6 6 7 8 9 9 8 8 7 7 5 3 3 2 2 2 2 3 5 6 6 6 5 4 4 3 3 3 3 2 1 2
2 5 4 2 3 5 3 5 2 3 4 5 6 7 8 10 10 9 9 9 8 9 9 9 8 7 7 6 4 3 2 2 1 1 1 3 5 6 6 5 5 4 4 4 4 4 4 3 2
3 5 5 3 3 2 2 2 6 3 4 6 8 9 10 10 9 9 9 9 9 9 7 7 7 6 6 6 5 5 4 3 3 2 2 2 3 4 5 5 5 4 4 4 4 4 4 4 3
5 2 4 3 4 3 3 2 7 2 5 9 10 10 10 10 11 11 11 10 8 7 6 6 5 5 5 6 6 5 4 3 1 1 1 1 1 2 3 4 3 3 3 4 4 3 4 4 4
5 7 7 6 5 2 2 2 6 5 7 7 9 9 9 9 10 9 7 6 5 6 6 6 6 5 5 6 6 6 6 4 2 2 1 1 1 1 2 2 2 3 3 3 3 3 4 4 4
6 7 5 5 4 5 3 2 9 8 8 8 8 8 8 9 9 9 9 8 7 7 7 7 7 6 6 6 6 6 5 5 4 3 2 2 1 1 2 1 1 2 2 2 3 2 3 3 3
6 9 8 6 5 4 2 5 8 7 7 5 4 5 6 8 8 9 9 9 8 8 8 8 8 6 5 5 5 4 4 4 3 2 2 2 1 1 1 1 1 1 1 2 2 2 2 2 2
8 4 7 8 4 0 5 7 8 4 4 1 2 5 7 7 8 7 7 8 8 8 8 8 8 6 5 5 4 3 3 3 2 2 1 1 0 0 1 1 1 1 1 0 1 1 1 1 1
7 10 7 7 6 2 5 5 5 6 5 2 2 5 6 6 6 6 7 7 7 7 7 7 7 6 5 5 4 4 3 3 3 2 2 1 1 1 2 2 2 2 2 1 1 0 0 0 0
6 6 6 6 6 7 3 7 7 7 6 5 5 4 5 7 7 7 6 6 7 6 7 6 6 5 5 5 5 4 4 4 4 3 2 2 2 2 3 2 3 3 2 2 2 1 1 1 1
6 9 8 7 4 5 5 8 6 6 5 5 4 3 5 7 7 7 7 7 7 7 7 6 5 5 5 5 5 4 4 4 4 3 3 3 3 2 2 3 3 3 3 3 3 2 2 1 1
Wind_Direction
253 164 147 101 58 51 43 6 50 62 52 57 80 84 87 68 94 133 128 129 127 124 128 125 120 115 110 107 107 105 105 104 104 103 101 101 101 100 100 98 98 100 101 101 101 101 102 103 104
186 163 104 62 73 65 11 353 78 82 132 119 80 75 71 64 69 105 125 133 126 127 127 129 125 120 114 111 109 107 106 106 106 105 104 103 103 102 102 101 100 100 102 102 102 102 103 105 106
203 98 80 67 75 123 142 138 114 103 107 89 82 69 76 101 119 130 145 131 117 120 129 137 131 126 120 115 112 110 109 109 109 107 107 106 104 103 102 102 102 102 103 103 103 104 105 106 107
90 49 54 64 61 226 173 167 132 113 76 62 94 77 70 95 131 135 134 130 121 119 135 143 135 131 126 121 117 114 113 112 112 109 109 108 106 104 103 102 103 102 103 103 103 104 106 106 107
60 71 59 50 21 7 113 145 132 109 91 75 90 89 58 44 109 125 132 133 131 127 139 146 139 134 130 126 121 118 116 115 114 111 108 108 108 108 107 105 104 105 104 104 104 105 104 104 104
51 62 74 61 19 54 113 126 105 95 97 94 90 93 67 109 123 134 131 127 128 129 137 147 143 139 135 132 129 125 121 119 117 114 111 109 109 109 109 108 108 108 107 106 105 103 101 100 103
89 79 103 119 96 112 159 122 123 117 110 116 113 100 103 136 134 127 120 117 116 122 125 130 139 141 139 138 135 131 126 122 120 118 114 111 110 110 110 109 107 107 108 107 105 101 97 94 99
111 95 78 97 141 186 148 114 118 120 113 120 119 136 165 167 135 119 113 111 115 113 113 119 123 126 129 137 139 136 133 129 126 123 119 116 113 111 110 109 109 109 107 107 105 104 100 96 100
87 73 105 197 180 189 143 128 135 106 119 133 126 146 151 139 134 130 130 133 148 155 136 129 129 131 134 140 146 142 139 135 130 128 123 110 98 98 104 112 117 117 112 106 101 96 93 89 93
80 106 211 212 187 166 149 144 146 122 131 112 90 104 127 141 148 154 162 169 176 179 178 165 158 153 153 153 136 129 126 127 125 123 117 111 108 106 108 107 115 118 111 100 88 75 74 76 81
103 165 223 240 169 141 137 141 136 134 181 180 155 146 148 155 162 169 175 180 183 181 183 178 175 171 167 143 136 131 126 130 136 139 135 128 114 98 79 69 63 71 77 70 65 53 55 68 85
107 275 204 211 130 134 144 140 132 173 210 164 155 152 157 166 175 180 182 185 179 179 189 178 174 172 184 172 157 152 149 152 164 179 165 148 136 127 102 75 52 23 44 55 50 44 31 44 74
58 326 337 88 107 123 115 120 132 184 124 130 142 153 165 175 181 183 183 182 179 187 192 181 178 179 186 183 185 173 178 181 191 195 191 181 176 182 177 198 234 269 252 238 20 27 8 7 11
320 357 5 54 92 101 115 95 99 142 132 137 151 165 176 181 179 175 178 185 189 193 192 183 184 189 186 183 192 190 189 191 196 205 206 202 199 198 192 214 239 247 238 245 260 282 336 334 337
28 41 31 30 67 103 105 52 183 154 143 151 164 172 179 187 183 188 190 190 191 191 188 186 189 187 190 193 197 197 195 195 200 211 213 212 209 205 198 206 234 242 238 236 247 272 328 300 295
41 49 30 327 48 108 124 216 217 155 154 165 175 178 181 189 194 197 193 189 186 182 183 190 194 186 192 190 191 196 197 197 204 211 214 214 214 208 197 211 229 239 227 215 222 227 242 272 256
36 60 5 312 347 116 139 226 215 166 167 177 184 185 183 187 197 200 194 188 185 184 181 182 182 181 185 179 181 189 194 199 202 206 213 215 213 206 199 212 226 225 213 212 227 204 202 231 239
183 125 295 263 275 142 186 234 201 176 183 187 186 186 186 194 203 195 187 183 182 181 180 179 178 177 168 155 148 151 180 210 204 208 212 211 209 206 202 211 218 207 198 216 216 214 209 218 228
150 150 232 256 262 180 216 241 205 183 192 195 194 193 197 205 197 176 174 174 175 176 177 181 178 174 159 153 160 166 196 209 211 215 214 211 209 205 200 207 204 197 204 215 211 200 213 228 187
142 140 254 298 355 104 76 315 250 195 204 205 202 200 200 197 179 172 168 176 183 184 185 185 185 178 176 177 165 162 163 181 200 207 209 220 217 212 208 200 204 205 208 218 213 194 189 222 181
185 185 203 232 9 35 63 346 304 250 217 216 213 203 198 197 190 185 183 187 186 190 192 192 187 183 180 167 139 118 96 77 97 200 223 231 225 224 221 209 207 209 203 214 216 203 198 214 215
238 225 189 158 93 347 69 271 286 255 249 231 221 209 205 199 187 188 189 191 197 195 188 184 178 176 174 164 164 170 179 192 206 203 215 240 230 230 229 221 211 210 210 218 223 211 207 199 219
200 97 108 101 117 64 30 127 287 306 252 245 230 220 212 196 188 190 195 196 193 178 174 173 170 176 175 172 177 177 188 194 181 168 197 245 266 252 246 233 222 221 222 224 222 212 209 207 212
132 73 56 50 71 59 261 162 278 242 232 250 231 221 211 192 186 187 185 174 168 161 163 163 167 188 185 177 179 184 186 182 178 192 202 244 279 300 292 258 236 234 231 225 218 213 210 216 219
100 92 45 17 20 251 284 206 251 254 245 240 236 218 205 186 179 178 176 176 173 169 168 165 169 191 186 180 186 189 189 182 193 205 213 223 256 286 291 283 263 248 240 227 214 208 222 223 224
161 140 152 175 204 266 317 240 257 266 272 256 222 192 182 177 179 183 182 178 174 174 171 165 171 184 176 181 190 181 177 181 196 197 190 196 221 258 295 301 288 275 256 235 203 212 234 229 235
133 154 151 127 142 108 286 288 300 296 318 328 159 160 174 176 176 175 169 168 169 171 172 170 170 168 167 175 168 157 162 162 163 151 154 163 224 300 6 357 336 328 310 216 186 217 239 220 223
137 140 108 119 138 212 295 285 259 275 276 271 195 176 178 166 162 159 157 160 161 160 155 155 158 161 159 154 155 158 146 141 140 125 112 88 53 35 30 23 19 7 10 32 145 181 228 178 223
111 96 103 107 139 148 219 269 232 231 233 230 225 198 170 165 164 157 150 146 139 135 139 144 146 143 143 148 147 144 129 117 110 104 96 85 62 51 48 45 44 31 22 33 65 64 61 90 55
150 155 144 143 177 158 166 261 274 242 234 213 210 183 159 157 153 145 142 138 135 135 134 134 134 138 142 138 133 130 118 114 114 112 97 86 74 60 53 52 55 46 34 30 46 47 37 48 40
Height
1495 1494 1495 1497 1502 1516 1522 1517 1511 1511 1513 1514 1514 1515 1518 1522 1525 1531 1529 1529 1531 1533 1534 1535 1536 1536 1537 1537 1538 1538 1539 1539 1540 1540 1541 1541 1542 1542 1543 1544 1544 1545 1545 1546 1547 1548 1550 1551 1552
1496 1496 1498 1499 1513 1531 1527 1516 1514 1513 1514 1515 1516 1518 1520 1523 1524 1526 1528 1531 1533 1535 1536 1537 1538 1539 1539 1540 1541 1541 1542 1542 1543 1543 1544 1544 1545 1545 1546 1547 1547 1547 1548 1549 1550 1551 1552 1554 1555
1497 1497 1499 1504 1519 1529 1524 1515 1514 1514 1515 1515 1518 1520 1523 1525 1526 1528 1530 1532 1535 1536 1538 1539 1540 1541 1542 1542 1543 1544 1544 1545 1546 1546 1547 1547 1548 1548 1549 1549 1550 1551 1551 1552 1553 1554 1556 1557 1558
1498 1499 1502 1512 1521 1518 1516 1514 1513 1514 1516 1517 1519 1523 1526 1529 1529 1530 1532 1534 1536 1538 1540 1541 1542 1543 1544 1545 1545 1546 1547 1547 1548 1549 1549 1550 1550 1551 1551 1552 1553 1554 1554 1555 1556 1557 1558 1559 1560
1499 1500 1511 1523 1521 1515 1513 1514 1515 1515 1517 1519 1520 1525 1528 1530 1531 1532 1534 1536 1538 1540 1541 1543 1544 1545 1546 1547 1548 1548 1549 1550 1550 1551 1552 1552 1553 1554 1554 1555 1555 1556 1557 1558 1559 1560 1561 1562 1563
1501 1504 1523 1531 1522 1516 1515 1516 1516 1517 1519 1521 1523 1526 1530 1532 1533 1535 1536 1539 1540 1542 1543 1545 1546 1547 1548 1549 1550 1550 1551 1552 1553 1554 1554 1555 1555 1556 1557 1558 1558 1559 1560 1561 1562 1563 1564 1565 1566
1504 1512 1524 1524 1523 1519 1517 1517 1518 1519 1521 1523 1524 1527 1531 1533 1535 1537 1539 1541 1542 1544 1545 1546 1547 1549 1550 1551 1551 1552 1553 1554 1555 1556 1557 1557 1558 1559 1559 1560 1561 1562 1562 1564 1564 1565 1566 1567 1568
1504 1512 1522 1524 1523 1520 1516 1518 1519 1520 1522 1524 1525 1527 1530 1533 1535 1538 1540 1542 1544 1545 1547 1548 1549 1550 1552 1552 1553 1554 1555 1556 1557 1558 1559 1559 1560 1561 1562 1562 1563 1564 1565 1566 1567 1568 1569 1569 1570
1506 1518 1527 1522 1520 1517 1516 1518 1520 1521 1523 1525 1526 1527 1530 1533 1536 1538 1541 1543 1545 1546 1548 1549 1551 1552 1553 1554 1555 1556 1557 1558 1559 1560 1561 1561 1562 1563 1564 1564 1565 1566 1567 1568 1569 1570 1571 1571 1572
1507 1521 1519 1513 1512 1513 1515 1517 1519 1522 1524 1525 1526 1528 1531 1534 1536 1538 1540 1543 1545 1547 1549 1550 1552 1554 1555 1556 1557 1558 1559 1560 1561 1562 1563 1563 1564 1565 1565 1566 1567 1568 1569 1570 1571 1572 1572 1573 1574
1508 1514 1511 1510 1510 1512 1515 1517 1519 1521 1524 1523 1524 1527 1531 1534 1537 1539 1541 1543 1545 1548 1550 1551 1553 1555 1557 1558 1558 1559 1560 1561 1562 1563 1564 1565 1566 1567 1567 1568 1569 1570 1571 1572 1572 1573 1574 1575 1575
1509 1509 1509 1509 1510 1512 1515 1517 1519 1520 1520 1522 1524 1526 1530 1533 1536 1539 1541 1544 1546 1548 1550 1552 1555 1556 1558 1559 1560 1561 1562 1563 1564 1565 1566 1567 1567 1568 1569 1570 1571 1571 1572 1573 1574 1574 1575 1576 1576
1509 1509 1508 1508 1510 1512 1515 1517 1519 1520 1521 1522 1526 1529 1531 1534 1537 1540 1543 1546 1548 1549 1551 1553 1555 1556 1559 1560 1561 1563 1564 1565 1566 1567 1567 1568 1569 1569 1570 1571 1571 1572 1573 1574 1575 1575 1576 1576 1577
1510 1510 1509 1510 1511 1513 1516 1519 1520 1521 1522 1523 1526 1529 1532 1535 1537 1540 1543 1545 1547 1550 1552 1554 1555 1557 1559 1560 1562 1564 1565 1566 1566 1567 1568 1569 1570 1570 1571 1571 1572 1573 1574 1575 1575 1576 1576 1577 1577
1510 1511 1512 1512 1512 1515 1518 1523 1521 1522 1523 1525 1527 1530 1533 1535 1538 1540 1542 1545 1547 1550 1552 1554 1556 1557 1559 1561 1562 1564 1565 1566 1567 1568 1569 1569 1570 1571 1571 1572 1572 1573 1574 1575 1575 1576 1576 1576 1577
1512 1519 1525 1517 1515 1516 1521 1530 1521 1521 1523 1526 1528 1531 1533 1536 1538 1541 1543 1545 1548 1550 1552 1554 1556 1557 1559 1561 1562 1564 1565 1566 1567 1568 1569 1569 1570 1571 1571 1572 1572 1573 1574 1574 1575 1575 1576 1576 1576
1525 1532 1530 1523 1516 1517 1521 1526 1520 1521 1523 1525 1528 1530 1533 1535 1538 1540 1542 1545 1547 1549 1552 1554 1555 1557 1559 1560 1562 1564 1565 1566 1567 1568 1568 1569 1569 1570 1570 1571 1571 1572 1573 1573 1574 1574 1575 1575 1575
1532 1532 1531 1528 1519 1518 1522 1523 1520 1522 1523 1524 1527 1530 1532 1534 1535 1538 1541 1544 1547 1549 1551 1553 1555 1557 1558 1560 1561 1563 1564 1565 1566 1567 1567 1568 1569 1569 1570 1570 1571 1571 1572 1572 1573 1573 1573 1574 1574
1523 1528 1530 1525 1517 1519 1522 1523 1520 1521 1523 1525 1526 1528 1530 1532 1535 1538 1540 1543 1545 1547 1549 1552 1554 1556 1557 1558 1560 1561 1562 1564 1565 1565 1566 1567 1568 1568 1568 1569 1569 1570 1570 1570 1571 1571 1572 1572 1572
1521 1527 1528 1523 1517 1520 1524 1524 1520 1520 1521 1522 1523 1525 1528 1530 1533 1536 1539 1542 1543 1545 1548 1550 1552 1554 1556 1558 1559 1560 1561 1562 1563 1564 1565 1566 1566 1567 1567 1567 1568 1568 1568 1569 1569 1569 1569 1570 1570
1521 1524 1525 1525 1522 1522 1525 1529 1524 1520 1520 1522 1522 1524 1526 1528 1531 1534 1536 1538 1541 1543 1545 1547 1550 1552 1554 1556 1558 1559 1560 1561 1562 1563 1564 1564 1565 1565 1565 1566 1566 1566 1567 1566 1567 1567 1567 1567 1568
1524 1516 1518 1522 1530 1538 1532 1546 1529 1523 1521 1519 1519 1521 1523 1525 1528 1531 1534 1536 1538 1540 1543 1546 1548 1551 1553 1555 1556 1557 1558 1559 1560 1561 1562 1563 1563 1564 1564 1564 1564 1564 1564 1564 1564 1564 1564 1564 1564
1515 1513 1517 1523 1531 1540 1538 1545 1537 1525 1523 1518 1516 1516 1518 1521 1524 1527 1530 1533 1536 1539 1541 1544 1546 1549 1551 1553 1554 1555 1556 1557 1559 1559 1560 1561 1562 1562 1562 1562 1562 1561 1561 1561 1561 1561 1561 1561 1561
1510 1518 1525 1533 1540 1552 1542 1546 1542 1529 1520 1513 1511 1513 1514 1518 1521 1524 1528 1531 1534 1537 1539 1542 1544 1546 1549 1551 1552 1553 1554 1555 1557 1557 1558 1559 1559 1560 1559 1559 1559 1559 1558 1558 1558 1558 1558 1558 1558
1513 1531 1552 1554 1562 1558 1543 1544 1539 1516 1511 1509 1508 1509 1511 1515 1518 1521 1525 1528 1531 1534 1536 1539 1542 1544 1546 1548 1550 1551 1552 1553 1554 1555 1556 1556 1557 1557 1557 1556 1556 1556 1555 1555 1555 1555 1555 1555 1554
1516 1525 1550 1561 1564 1558 1545 1545 1526 1509 1506 1505 1505 1507 1510 1512 1515 1518 1522 1525 1529 1532 1534 1537 1540 1542 1544 1546 1548 1549 1550 1551 1552 1553 1554 1554 1554 1554 1554 1554 1553 1553 1552 1552 1552 1551 1551 1551 1551
1516 1523 1526 1546 1552 1556 1550 1537 1519 1506 1505 1504 1504 1506 1507 1510 1513 1517 1521 1524 1527 1530 1533 1535 1538 1540 1542 1544 1546 1547 1548 1549 1550 1551 1552 1552 1552 1552 1552 1552 1551 1550 1550 1549 1549 1548 1548 1548 1548
1506 1517 1533 1546 1560 1561 1549 1541 1532 1512 1508 1506 1505 1505 1507 1510 1513 1516 1520 1523 1526 1529 1532 1534 1537 1539 1541 1542 1544 1545 1546 1547 1548 1549 1550 1550 1550 1550 1550 1549 1549 1548 1547 1546 1546 1545 1545 1545 1545
1512 1519 1530 1543 1545 1559 1558 1544 1513 1509 1505 1505 1505 1505 1508 1510 1513 1516 1519 1523 1526 1528 1531 1533 1536 1538 1540 1541 1542 1543 1544 1545 1546 1547 1547 1548 1548 1548 1548 1547 1547 1546 1545 1544 1544 1543 1543 1543 1543
1500 1510 1522 1536 1545 1549 1551 1540 1504 1503 1502 1503 1504 1506 1508 1510 1513 1516 1519 1523 1526 1528 1531 1533 1535 1537 1538 1540 1541 1542 1543 1544 1544 1545 1546 1546 1546 1546 1546 1545 1545 1544 1544 1543 1543 1542 1542 1541 1541